Year,Month,Day,Hour,Minute,Value (Times are PST for temperature in C)
2018,07,15,00,00,18.80
2018,07,15,00,01,18.80
2018,07,15,00,02,18.70
2018,07,15,00,03,18.70
2018,07,15,00,04,18.70
2018,07,15,00,05,18.60
2018,07,15,00,06,18.60
2018,07,15,00,07,18.60
2018,07,15,00,08,18.60
2018,07,15,00,09,18.60
2018,07,15,00,10,18.50
2018,07,15,00,11,18.50
2018,07,15,00,12,18.50
2018,07,15,00,13,18.50
2018,07,15,00,14,18.50
2018,07,15,00,15,18.50
2018,07,15,00,16,18.60
2018,07,15,00,17,18.60
2018,07,15,00,18,18.70
2018,07,15,00,19,18.70
2018,07,15,00,20,18.80
2018,07,15,00,21,18.80
2018,07,15,00,22,18.80
2018,07,15,00,23,18.90
2018,07,15,00,24,18.90
2018,07,15,00,25,18.90
2018,07,15,00,26,18.90
2018,07,15,00,27,18.90
2018,07,15,00,28,18.90
2018,07,15,00,29,18.80
2018,07,15,00,30,18.80
2018,07,15,00,31,18.80
2018,07,15,00,32,18.80
2018,07,15,00,33,18.80
2018,07,15,00,34,18.80
2018,07,15,00,35,18.80
2018,07,15,00,36,18.80
2018,07,15,00,37,18.80
2018,07,15,00,38,18.80
2018,07,15,00,39,18.80
2018,07,15,00,40,18.80
2018,07,15,00,41,18.80
2018,07,15,00,42,18.80
2018,07,15,00,43,18.80
2018,07,15,00,44,18.80
2018,07,15,00,45,18.80
2018,07,15,00,46,18.80
2018,07,15,00,47,18.80
2018,07,15,00,48,18.80
2018,07,15,00,49,18.80
2018,07,15,00,50,18.90
2018,07,15,00,51,18.90
2018,07,15,00,52,18.90
2018,07,15,00,53,18.90
2018,07,15,00,54,18.90
2018,07,15,00,55,18.90
2018,07,15,00,56,18.90
2018,07,15,00,57,18.90
2018,07,15,00,58,18.90
2018,07,15,00,59,18.90
2018,07,15,01,00,18.90
2018,07,15,01,01,18.90
2018,07,15,01,02,18.90
2018,07,15,01,03,18.90
2018,07,15,01,04,18.90
2018,07,15,01,05,18.90
2018,07,15,01,06,18.90
2018,07,15,01,07,18.90
2018,07,15,01,08,18.90
2018,07,15,01,09,18.90
2018,07,15,01,10,18.90
2018,07,15,01,11,18.90
2018,07,15,01,12,19.00
2018,07,15,01,13,19.00
2018,07,15,01,14,19.00
2018,07,15,01,15,19.00
2018,07,15,01,16,19.00
2018,07,15,01,17,19.00
2018,07,15,01,18,19.00
2018,07,15,01,19,19.00
2018,07,15,01,20,19.00
2018,07,15,01,21,19.00
2018,07,15,01,22,19.00
2018,07,15,01,23,18.90
2018,07,15,01,24,18.90
2018,07,15,01,25,18.90
2018,07,15,01,26,18.90
2018,07,15,01,27,18.90
2018,07,15,01,28,18.90
2018,07,15,01,29,18.80
2018,07,15,01,30,18.80
2018,07,15,01,31,18.80
2018,07,15,01,32,18.80
2018,07,15,01,33,18.80
2018,07,15,01,34,18.80
2018,07,15,01,35,18.80
2018,07,15,01,36,18.80
2018,07,15,01,37,18.80
2018,07,15,01,38,18.80
2018,07,15,01,39,18.80
2018,07,15,01,40,18.70
2018,07,15,01,41,18.70
2018,07,15,01,42,18.70
2018,07,15,01,43,18.70
2018,07,15,01,44,18.70
2018,07,15,01,45,18.70
2018,07,15,01,46,18.70
2018,07,15,01,47,18.70
2018,07,15,01,48,18.70
2018,07,15,01,49,18.70
2018,07,15,01,50,18.70
2018,07,15,01,51,18.70
2018,07,15,01,52,18.70
2018,07,15,01,53,18.70
2018,07,15,01,54,18.70
2018,07,15,01,55,18.70
2018,07,15,01,56,18.70
2018,07,15,01,57,18.70
2018,07,15,01,58,18.70
2018,07,15,01,59,18.70
2018,07,15,02,00,18.70
2018,07,15,02,01,18.70
2018,07,15,02,02,18.70
2018,07,15,02,03,18.60
2018,07,15,02,04,18.60
2018,07,15,02,05,18.60
2018,07,15,02,06,18.60
2018,07,15,02,07,18.60
2018,07,15,02,08,18.60
2018,07,15,02,09,18.60
2018,07,15,02,10,18.60
2018,07,15,02,11,18.60
2018,07,15,02,12,18.60
2018,07,15,02,13,18.60
2018,07,15,02,14,18.50
2018,07,15,02,15,18.50
2018,07,15,02,16,18.50
2018,07,15,02,17,18.40
2018,07,15,02,18,18.40
2018,07,15,02,19,18.40
2018,07,15,02,20,18.30
2018,07,15,02,21,18.30
2018,07,15,02,22,18.30
2018,07,15,02,23,18.20
2018,07,15,02,24,18.20
2018,07,15,02,25,18.10
2018,07,15,02,26,18.10
2018,07,15,02,27,18.10
2018,07,15,02,28,18.10
2018,07,15,02,29,18.10
2018,07,15,02,30,18.10
2018,07,15,02,31,18.20
2018,07,15,02,32,18.30
2018,07,15,02,33,18.50
2018,07,15,02,34,18.80
2018,07,15,02,35,19.10
2018,07,15,02,36,19.50
2018,07,15,02,37,19.70
2018,07,15,02,38,20.00
2018,07,15,02,39,20.10
2018,07,15,02,40,20.30
2018,07,15,02,41,20.40
2018,07,15,02,42,20.50
2018,07,15,02,43,20.50
2018,07,15,02,44,20.50
2018,07,15,02,45,20.50
2018,07,15,02,46,20.60
2018,07,15,02,47,20.60
2018,07,15,02,48,20.70
2018,07,15,02,49,20.80
2018,07,15,02,50,20.80
2018,07,15,02,51,20.80
2018,07,15,02,52,20.90
2018,07,15,02,53,20.90
2018,07,15,02,54,20.90
2018,07,15,02,55,20.90
2018,07,15,02,56,20.90
2018,07,15,02,57,20.90
2018,07,15,02,58,21.00
2018,07,15,02,59,21.00
2018,07,15,03,00,21.10
2018,07,15,03,01,21.10
2018,07,15,03,02,21.00
2018,07,15,03,03,21.00
2018,07,15,03,04,21.00
2018,07,15,03,05,20.90
2018,07,15,03,06,20.90
2018,07,15,03,07,20.90
2018,07,15,03,08,20.90
2018,07,15,03,09,20.80
2018,07,15,03,10,20.80
2018,07,15,03,11,20.80
2018,07,15,03,12,20.80
2018,07,15,03,13,20.80
2018,07,15,03,14,20.80
2018,07,15,03,15,20.80
2018,07,15,03,16,20.80
2018,07,15,03,17,20.80
2018,07,15,03,18,20.80
2018,07,15,03,19,20.70
2018,07,15,03,20,20.70
2018,07,15,03,21,20.60
2018,07,15,03,22,20.60
2018,07,15,03,23,20.60
2018,07,15,03,24,20.70
2018,07,15,03,25,20.70
2018,07,15,03,26,20.70
2018,07,15,03,27,20.70
2018,07,15,03,28,20.70
2018,07,15,03,29,20.70
2018,07,15,03,30,20.80
2018,07,15,03,31,20.90
2018,07,15,03,32,20.90
2018,07,15,03,33,20.90
2018,07,15,03,34,20.90
2018,07,15,03,35,21.00
2018,07,15,03,36,21.00
2018,07,15,03,37,21.00
2018,07,15,03,38,21.00
2018,07,15,03,39,21.00
2018,07,15,03,40,21.00
2018,07,15,03,41,20.90
2018,07,15,03,42,20.90
2018,07,15,03,43,20.90
2018,07,15,03,44,20.80
2018,07,15,03,45,20.80
2018,07,15,03,46,20.70
2018,07,15,03,47,20.70
2018,07,15,03,48,20.60
2018,07,15,03,49,20.60
2018,07,15,03,50,20.50
2018,07,15,03,51,20.60
2018,07,15,03,52,20.60
2018,07,15,03,53,20.60
2018,07,15,03,54,20.50
2018,07,15,03,55,20.60
2018,07,15,03,56,20.60
2018,07,15,03,57,20.50
2018,07,15,03,58,20.50
2018,07,15,03,59,20.50
2018,07,15,04,00,20.50
2018,07,15,04,01,20.50
2018,07,15,04,02,20.40
2018,07,15,04,03,20.40
2018,07,15,04,04,20.40
2018,07,15,04,05,20.30
2018,07,15,04,06,20.30
2018,07,15,04,07,20.20
2018,07,15,04,08,20.20
2018,07,15,04,09,20.10
2018,07,15,04,10,20.00
2018,07,15,04,11,19.90
2018,07,15,04,12,19.80
2018,07,15,04,13,19.70
2018,07,15,04,14,19.60
2018,07,15,04,15,19.50
2018,07,15,04,16,19.40
2018,07,15,04,17,19.30
2018,07,15,04,18,19.10
2018,07,15,04,19,19.00
2018,07,15,04,20,19.00
2018,07,15,04,21,18.90
2018,07,15,04,22,18.90
2018,07,15,04,23,18.80
2018,07,15,04,24,18.70
2018,07,15,04,25,18.70
2018,07,15,04,26,18.70
2018,07,15,04,27,18.70
2018,07,15,04,28,18.70
2018,07,15,04,29,18.70
2018,07,15,04,30,18.70
2018,07,15,04,31,18.70
2018,07,15,04,32,18.70
2018,07,15,04,33,18.60
2018,07,15,04,34,18.60
2018,07,15,04,35,18.50
2018,07,15,04,36,18.50
2018,07,15,04,37,18.40
2018,07,15,04,38,18.30
2018,07,15,04,39,18.30
2018,07,15,04,40,18.30
2018,07,15,04,41,18.30
2018,07,15,04,42,18.30
2018,07,15,04,43,18.30
2018,07,15,04,44,18.30
2018,07,15,04,45,18.30
2018,07,15,04,46,18.30
2018,07,15,04,47,18.30
2018,07,15,04,48,18.30
2018,07,15,04,49,18.30
2018,07,15,04,50,18.30
2018,07,15,04,51,18.30
2018,07,15,04,52,18.30
2018,07,15,04,53,18.30
2018,07,15,04,54,18.30
2018,07,15,04,55,18.20
2018,07,15,04,56,18.20
2018,07,15,04,57,18.20
2018,07,15,04,58,18.10
2018,07,15,04,59,18.10
2018,07,15,05,00,18.20
2018,07,15,05,01,18.20
2018,07,15,05,02,18.30
2018,07,15,05,03,18.40
2018,07,15,05,04,18.50
2018,07,15,05,05,18.60
2018,07,15,05,06,18.70
2018,07,15,05,07,18.70
2018,07,15,05,08,18.80
2018,07,15,05,09,18.80
2018,07,15,05,10,18.80
2018,07,15,05,11,18.90
2018,07,15,05,12,18.90
2018,07,15,05,13,18.90
2018,07,15,05,14,18.90
2018,07,15,05,15,19.00
2018,07,15,05,16,19.00
2018,07,15,05,17,19.00
2018,07,15,05,18,19.00
2018,07,15,05,19,19.00
2018,07,15,05,20,19.00
2018,07,15,05,21,19.00
2018,07,15,05,22,18.90
2018,07,15,05,23,19.00
2018,07,15,05,24,19.00
2018,07,15,05,25,19.00
2018,07,15,05,26,19.00
2018,07,15,05,27,19.00
2018,07,15,05,28,19.00
2018,07,15,05,29,19.00
2018,07,15,05,30,18.90
2018,07,15,05,31,18.90
2018,07,15,05,32,18.90
2018,07,15,05,33,18.90
2018,07,15,05,34,18.90
2018,07,15,05,35,18.90
2018,07,15,05,36,18.90
2018,07,15,05,37,18.90
2018,07,15,05,38,18.90
2018,07,15,05,39,18.90
2018,07,15,05,40,19.00
2018,07,15,05,41,19.00
2018,07,15,05,42,19.00
2018,07,15,05,43,19.00
2018,07,15,05,44,19.00
2018,07,15,05,45,18.90
2018,07,15,05,46,18.90
2018,07,15,05,47,18.90
2018,07,15,05,48,18.80
2018,07,15,05,49,18.80
2018,07,15,05,50,18.70
2018,07,15,05,51,18.60
2018,07,15,05,52,18.60
2018,07,15,05,53,18.60
2018,07,15,05,54,18.60
2018,07,15,05,55,18.60
2018,07,15,05,56,18.60
2018,07,15,05,57,18.60
2018,07,15,05,58,18.60
2018,07,15,05,59,18.60
2018,07,15,06,00,18.60
2018,07,15,06,01,18.70
2018,07,15,06,02,18.70
2018,07,15,06,03,18.70
2018,07,15,06,04,18.70
2018,07,15,06,05,18.80
2018,07,15,06,06,18.80
2018,07,15,06,07,18.80
2018,07,15,06,08,18.80
2018,07,15,06,09,18.80
2018,07,15,06,10,18.80
2018,07,15,06,11,18.80
2018,07,15,06,12,18.80
2018,07,15,06,13,18.80
2018,07,15,06,14,18.80
2018,07,15,06,15,18.70
2018,07,15,06,16,18.70
2018,07,15,06,17,18.70
2018,07,15,06,18,18.70
2018,07,15,06,19,18.70
2018,07,15,06,20,18.70
2018,07,15,06,21,18.70
2018,07,15,06,22,18.70
2018,07,15,06,23,18.70
2018,07,15,06,24,18.70
2018,07,15,06,25,18.70
2018,07,15,06,26,18.70
2018,07,15,06,27,18.70
2018,07,15,06,28,18.70
2018,07,15,06,29,18.70
2018,07,15,06,30,18.70
2018,07,15,06,31,18.70
2018,07,15,06,32,18.70
2018,07,15,06,33,18.70
2018,07,15,06,34,18.70
2018,07,15,06,35,18.70
2018,07,15,06,36,18.70
2018,07,15,06,37,18.70
2018,07,15,06,38,18.70
2018,07,15,06,39,18.70
2018,07,15,06,40,18.80
2018,07,15,06,41,18.80
2018,07,15,06,42,18.80
2018,07,15,06,43,18.80
2018,07,15,06,44,18.80
2018,07,15,06,45,18.80
2018,07,15,06,46,18.80
2018,07,15,06,47,18.80
2018,07,15,06,48,18.80
2018,07,15,06,49,18.80
2018,07,15,06,50,18.80
2018,07,15,06,51,18.80
2018,07,15,06,52,18.80
2018,07,15,06,53,18.80
2018,07,15,06,54,18.80
2018,07,15,06,55,18.80
2018,07,15,06,56,18.80
2018,07,15,06,57,18.80
2018,07,15,06,58,18.90
2018,07,15,06,59,18.90
2018,07,15,07,00,18.80
2018,07,15,07,01,18.80
2018,07,15,07,02,18.80
2018,07,15,07,03,18.80
2018,07,15,07,04,18.80
2018,07,15,07,05,18.90
2018,07,15,07,06,18.90
2018,07,15,07,07,18.90
2018,07,15,07,08,18.90
2018,07,15,07,09,18.90
2018,07,15,07,10,19.00
2018,07,15,07,11,19.00
2018,07,15,07,12,19.00
2018,07,15,07,13,19.00
2018,07,15,07,14,19.00
2018,07,15,07,15,19.00
2018,07,15,07,16,19.00
2018,07,15,07,17,19.00
2018,07,15,07,18,19.00
2018,07,15,07,19,19.00
2018,07,15,07,20,19.00
2018,07,15,07,21,19.00
2018,07,15,07,22,19.00
2018,07,15,07,23,19.00
2018,07,15,07,24,19.00
2018,07,15,07,25,19.00
2018,07,15,07,26,19.00
2018,07,15,07,27,19.00
2018,07,15,07,28,19.00
2018,07,15,07,29,19.00
2018,07,15,07,30,19.00
2018,07,15,07,31,19.00
2018,07,15,07,32,19.10
2018,07,15,07,33,19.10
2018,07,15,07,34,19.10
2018,07,15,07,35,19.10
2018,07,15,07,36,19.10
2018,07,15,07,37,19.10
2018,07,15,07,38,19.10
2018,07,15,07,39,19.10
2018,07,15,07,40,19.10
2018,07,15,07,41,19.10
2018,07,15,07,42,19.10
2018,07,15,07,43,19.10
2018,07,15,07,44,19.10
2018,07,15,07,45,19.10
2018,07,15,07,46,19.10
2018,07,15,07,47,19.10
2018,07,15,07,48,19.20
2018,07,15,07,49,19.20
2018,07,15,07,50,19.20
2018,07,15,07,51,19.20
2018,07,15,07,52,19.10
2018,07,15,07,53,19.10
2018,07,15,07,54,19.20
2018,07,15,07,55,19.20
2018,07,15,07,56,19.20
2018,07,15,07,57,19.20
2018,07,15,07,58,19.20
2018,07,15,07,59,19.20
2018,07,15,08,00,19.20
2018,07,15,08,01,19.20
2018,07,15,08,02,19.20
2018,07,15,08,03,19.20
2018,07,15,08,04,19.20
2018,07,15,08,05,19.30
2018,07,15,08,06,19.30
2018,07,15,08,07,19.30
2018,07,15,08,08,19.30
2018,07,15,08,09,19.30
2018,07,15,08,10,19.30
2018,07,15,08,11,19.30
2018,07,15,08,12,19.30
2018,07,15,08,13,19.30
2018,07,15,08,14,19.40
2018,07,15,08,15,19.40
2018,07,15,08,16,19.40
2018,07,15,08,17,19.40
2018,07,15,08,18,19.30
2018,07,15,08,19,19.30
2018,07,15,08,20,19.30
2018,07,15,08,21,19.30
2018,07,15,08,22,19.30
2018,07,15,08,23,19.30
2018,07,15,08,24,19.30
2018,07,15,08,25,19.30
2018,07,15,08,26,19.30
2018,07,15,08,27,19.30
2018,07,15,08,28,19.30
2018,07,15,08,29,19.30
2018,07,15,08,30,19.30
2018,07,15,08,31,19.30
2018,07,15,08,32,19.30
2018,07,15,08,33,19.30
2018,07,15,08,34,19.30
2018,07,15,08,35,19.30
2018,07,15,08,36,19.40
2018,07,15,08,37,19.40
2018,07,15,08,38,19.40
2018,07,15,08,39,19.40
2018,07,15,08,40,19.40
2018,07,15,08,41,19.40
2018,07,15,08,42,19.40
2018,07,15,08,43,19.40
2018,07,15,08,44,19.50
2018,07,15,08,45,19.50
2018,07,15,08,46,19.50
2018,07,15,08,47,19.60
2018,07,15,08,48,19.60
2018,07,15,08,49,19.70
2018,07,15,08,50,19.70
2018,07,15,08,51,19.70
2018,07,15,08,52,19.80
2018,07,15,08,53,19.80
2018,07,15,08,54,19.80
2018,07,15,08,55,19.80
2018,07,15,08,56,19.90
2018,07,15,08,57,19.90
2018,07,15,08,58,19.90
2018,07,15,08,59,19.90
2018,07,15,09,00,20.00
2018,07,15,09,01,20.00
2018,07,15,09,02,20.00
2018,07,15,09,03,20.00
2018,07,15,09,04,20.00
2018,07,15,09,05,20.00
2018,07,15,09,06,20.10
2018,07,15,09,07,20.10
2018,07,15,09,08,20.10
2018,07,15,09,09,20.20
2018,07,15,09,10,20.20
2018,07,15,09,11,20.20
2018,07,15,09,12,20.20
2018,07,15,09,13,20.20
2018,07,15,09,14,20.20
2018,07,15,09,15,20.20
2018,07,15,09,16,20.20
2018,07,15,09,17,20.20
2018,07,15,09,18,20.20
2018,07,15,09,19,20.20
2018,07,15,09,20,20.10
2018,07,15,09,21,20.10
2018,07,15,09,22,20.20
2018,07,15,09,23,20.20
2018,07,15,09,24,20.20
2018,07,15,09,25,20.30
2018,07,15,09,26,20.30
2018,07,15,09,27,20.40
2018,07,15,09,28,20.40
2018,07,15,09,29,20.40
2018,07,15,09,30,20.50
2018,07,15,09,31,20.50
2018,07,15,09,32,20.50
2018,07,15,09,33,20.50
2018,07,15,09,34,20.60
2018,07,15,09,35,20.60
2018,07,15,09,36,20.60
2018,07,15,09,37,20.60
2018,07,15,09,38,20.70
2018,07,15,09,39,20.80
2018,07,15,09,40,20.80
2018,07,15,09,41,20.80
2018,07,15,09,42,20.80
2018,07,15,09,43,20.90
2018,07,15,09,44,21.00
2018,07,15,09,45,21.10
2018,07,15,09,46,21.10
2018,07,15,09,47,21.20
2018,07,15,09,48,21.20
2018,07,15,09,49,21.30
2018,07,15,09,50,21.30
2018,07,15,09,51,21.30
2018,07,15,09,52,21.30
2018,07,15,09,53,21.30
2018,07,15,09,54,21.20
2018,07,15,09,55,21.20
2018,07,15,09,56,21.20
2018,07,15,09,57,21.30
2018,07,15,09,58,21.30
2018,07,15,09,59,21.30
2018,07,15,10,00,21.30
2018,07,15,10,01,21.30
2018,07,15,10,02,21.30
2018,07,15,10,03,21.40
2018,07,15,10,04,21.40
2018,07,15,10,05,21.40
2018,07,15,10,06,21.50
2018,07,15,10,07,21.60
2018,07,15,10,08,21.60
2018,07,15,10,09,21.60
2018,07,15,10,10,21.70
2018,07,15,10,11,21.70
2018,07,15,10,12,21.70
2018,07,15,10,13,21.70
2018,07,15,10,14,21.70
2018,07,15,10,15,21.70
2018,07,15,10,16,21.80
2018,07,15,10,17,21.90
2018,07,15,10,18,22.00
2018,07,15,10,19,22.00
2018,07,15,10,20,22.00
2018,07,15,10,21,21.90
2018,07,15,10,22,21.90
2018,07,15,10,23,21.80
2018,07,15,10,24,21.90
2018,07,15,10,25,21.90
2018,07,15,10,26,21.90
2018,07,15,10,27,21.90
2018,07,15,10,28,21.90
2018,07,15,10,29,21.90
2018,07,15,10,30,21.90
2018,07,15,10,31,21.90
2018,07,15,10,32,21.80
2018,07,15,10,33,21.80
2018,07,15,10,34,21.80
2018,07,15,10,35,21.80
2018,07,15,10,36,21.80
2018,07,15,10,37,21.80
2018,07,15,10,38,21.80
2018,07,15,10,39,21.90
2018,07,15,10,40,22.00
2018,07,15,10,41,22.10
2018,07,15,10,42,22.10
2018,07,15,10,43,22.10
2018,07,15,10,44,22.00
2018,07,15,10,45,22.00
2018,07,15,10,46,22.00
2018,07,15,10,47,22.00
2018,07,15,10,48,22.00
2018,07,15,10,49,22.00
2018,07,15,10,50,22.10
2018,07,15,10,51,22.20
2018,07,15,10,52,22.20
2018,07,15,10,53,22.30
2018,07,15,10,54,22.50
2018,07,15,10,55,22.60
2018,07,15,10,56,22.60
2018,07,15,10,57,22.70
2018,07,15,10,58,22.80
2018,07,15,10,59,22.80
2018,07,15,11,00,22.80
2018,07,15,11,01,22.80
2018,07,15,11,02,22.70
2018,07,15,11,03,22.60
2018,07,15,11,04,22.60
2018,07,15,11,05,22.50
2018,07,15,11,06,22.40
2018,07,15,11,07,22.40
2018,07,15,11,08,22.30
2018,07,15,11,09,22.30
2018,07,15,11,10,22.30
2018,07,15,11,11,22.30
2018,07,15,11,12,22.20
2018,07,15,11,13,22.20
2018,07,15,11,14,22.20
2018,07,15,11,15,22.20
2018,07,15,11,16,22.30
2018,07,15,11,17,22.30
2018,07,15,11,18,22.40
2018,07,15,11,19,22.50
2018,07,15,11,20,22.60
2018,07,15,11,21,22.60
2018,07,15,11,22,22.60
2018,07,15,11,23,22.70
2018,07,15,11,24,22.70
2018,07,15,11,25,22.60
2018,07,15,11,26,22.60
2018,07,15,11,27,22.60
2018,07,15,11,28,22.60
2018,07,15,11,29,22.70
2018,07,15,11,30,22.80
2018,07,15,11,31,22.90
2018,07,15,11,32,22.90
2018,07,15,11,33,22.80
2018,07,15,11,34,22.80
2018,07,15,11,35,22.80
2018,07,15,11,36,22.80
2018,07,15,11,37,22.80
2018,07,15,11,38,22.70
2018,07,15,11,39,22.60
2018,07,15,11,40,22.70
2018,07,15,11,41,22.80
2018,07,15,11,42,22.80
2018,07,15,11,43,22.80
2018,07,15,11,44,22.90
2018,07,15,11,45,23.00
2018,07,15,11,46,23.10
2018,07,15,11,47,23.20
2018,07,15,11,48,23.30
2018,07,15,11,49,23.30
2018,07,15,11,50,23.20
2018,07,15,11,51,23.20
2018,07,15,11,52,23.10
2018,07,15,11,53,23.00
2018,07,15,11,54,23.00
2018,07,15,11,55,23.10
2018,07,15,11,56,23.10
2018,07,15,11,57,23.10
2018,07,15,11,58,23.20
2018,07,15,11,59,23.20
2018,07,15,12,00,23.30
2018,07,15,12,01,23.30
2018,07,15,12,02,23.20
2018,07,15,12,03,23.20
2018,07,15,12,04,23.20
2018,07,15,12,05,23.10
2018,07,15,12,06,23.20
2018,07,15,12,07,23.30
2018,07,15,12,08,23.30
2018,07,15,12,09,23.40
2018,07,15,12,10,23.50
2018,07,15,12,11,23.50
2018,07,15,12,12,23.60
2018,07,15,12,13,23.60
2018,07,15,12,14,23.70
2018,07,15,12,15,23.80
2018,07,15,12,16,23.80
2018,07,15,12,17,23.80
2018,07,15,12,18,23.90
2018,07,15,12,19,23.90
2018,07,15,12,20,24.00
2018,07,15,12,21,24.10
2018,07,15,12,22,24.10
2018,07,15,12,23,24.20
2018,07,15,12,24,24.20
2018,07,15,12,25,24.10
2018,07,15,12,26,24.10
2018,07,15,12,27,24.00
2018,07,15,12,28,23.90
2018,07,15,12,29,23.80
2018,07,15,12,30,23.80
2018,07,15,12,31,23.80
2018,07,15,12,32,23.80
2018,07,15,12,33,23.90
2018,07,15,12,34,23.90
2018,07,15,12,35,24.00
2018,07,15,12,36,24.10
2018,07,15,12,37,24.10
2018,07,15,12,38,24.10
2018,07,15,12,39,24.20
2018,07,15,12,40,24.30
2018,07,15,12,41,24.40
2018,07,15,12,42,24.40
2018,07,15,12,43,24.40
2018,07,15,12,44,24.40
2018,07,15,12,45,24.50
2018,07,15,12,46,24.60
2018,07,15,12,47,24.60
2018,07,15,12,48,24.40
2018,07,15,12,49,24.30
2018,07,15,12,50,24.20
2018,07,15,12,51,24.20
2018,07,15,12,52,24.20
2018,07,15,12,53,24.20
2018,07,15,12,54,24.10
2018,07,15,12,55,24.10
2018,07,15,12,56,24.10
2018,07,15,12,57,24.00
2018,07,15,12,58,23.90
2018,07,15,12,59,24.00
2018,07,15,13,00,24.10
2018,07,15,13,01,24.10
2018,07,15,13,02,24.20
2018,07,15,13,03,24.20
2018,07,15,13,04,24.20
2018,07,15,13,05,24.30
2018,07,15,13,06,24.30
2018,07,15,13,07,24.30
2018,07,15,13,08,24.30
2018,07,15,13,09,24.20
2018,07,15,13,10,24.10
2018,07,15,13,11,24.10
2018,07,15,13,12,24.10
2018,07,15,13,13,24.20
2018,07,15,13,14,24.40
2018,07,15,13,15,24.40
2018,07,15,13,16,24.40
2018,07,15,13,17,24.40
2018,07,15,13,18,24.50
2018,07,15,13,19,24.60
2018,07,15,13,20,24.70
2018,07,15,13,21,24.70
2018,07,15,13,22,24.80
2018,07,15,13,23,24.80
2018,07,15,13,24,24.80
2018,07,15,13,25,24.80
2018,07,15,13,26,24.70
2018,07,15,13,27,24.60
2018,07,15,13,28,24.50
2018,07,15,13,29,24.40
2018,07,15,13,30,24.50
2018,07,15,13,31,24.50
2018,07,15,13,32,24.60
2018,07,15,13,33,24.60
2018,07,15,13,34,24.70
2018,07,15,13,35,24.80
2018,07,15,13,36,24.90
2018,07,15,13,37,24.90
2018,07,15,13,38,25.00
2018,07,15,13,39,25.00
2018,07,15,13,40,25.10
2018,07,15,13,41,25.20
2018,07,15,13,42,25.30
2018,07,15,13,43,25.40
2018,07,15,13,44,25.40
2018,07,15,13,45,25.40
2018,07,15,13,46,25.40
2018,07,15,13,47,25.50
2018,07,15,13,48,25.40
2018,07,15,13,49,25.40
2018,07,15,13,50,25.50
2018,07,15,13,51,25.50
2018,07,15,13,52,25.50
2018,07,15,13,53,25.50
2018,07,15,13,54,25.50
2018,07,15,13,55,25.60
2018,07,15,13,56,25.60
2018,07,15,13,57,25.70
2018,07,15,13,58,25.70
2018,07,15,13,59,25.80
2018,07,15,14,00,25.80
2018,07,15,14,01,25.80
2018,07,15,14,02,25.70
2018,07,15,14,03,25.60
2018,07,15,14,04,25.70
2018,07,15,14,05,25.70
2018,07,15,14,06,25.90
2018,07,15,14,07,26.00
2018,07,15,14,08,26.00
2018,07,15,14,09,26.00
2018,07,15,14,10,25.90
2018,07,15,14,11,25.90
2018,07,15,14,12,25.90
2018,07,15,14,13,25.90
2018,07,15,14,14,25.90
2018,07,15,14,15,26.00
2018,07,15,14,16,26.10
2018,07,15,14,17,26.20
2018,07,15,14,18,26.20
2018,07,15,14,19,26.30
2018,07,15,14,20,26.30
2018,07,15,14,21,26.40
2018,07,15,14,22,26.50
2018,07,15,14,23,26.50
2018,07,15,14,24,26.60
2018,07,15,14,25,26.60
2018,07,15,14,26,26.70
2018,07,15,14,27,26.80
2018,07,15,14,28,26.80
2018,07,15,14,29,26.80
2018,07,15,14,30,26.80
2018,07,15,14,31,26.70
2018,07,15,14,32,26.70
2018,07,15,14,33,26.70
2018,07,15,14,34,26.70
2018,07,15,14,35,26.80
2018,07,15,14,36,26.80
2018,07,15,14,37,26.80
2018,07,15,14,38,26.90
2018,07,15,14,39,27.00
2018,07,15,14,40,27.10
2018,07,15,14,41,27.30
2018,07,15,14,42,27.40
2018,07,15,14,43,27.50
2018,07,15,14,44,27.50
2018,07,15,14,45,27.50
2018,07,15,14,46,27.50
2018,07,15,14,47,27.60
2018,07,15,14,48,27.60
2018,07,15,14,49,27.70
2018,07,15,14,50,27.70
2018,07,15,14,51,27.80
2018,07,15,14,52,27.80
2018,07,15,14,53,27.80
2018,07,15,14,54,27.80
2018,07,15,14,55,27.90
2018,07,15,14,56,27.90
2018,07,15,14,57,28.00
2018,07,15,14,58,28.10
2018,07,15,14,59,28.20
2018,07,15,15,00,28.20
2018,07,15,15,01,28.20
2018,07,15,15,02,28.20
2018,07,15,15,03,28.30
2018,07,15,15,04,28.30
2018,07,15,15,05,28.30
2018,07,15,15,06,28.40
2018,07,15,15,07,28.50
2018,07,15,15,08,28.50
2018,07,15,15,09,28.70
2018,07,15,15,10,28.70
2018,07,15,15,11,28.80
2018,07,15,15,12,28.90
2018,07,15,15,13,28.90
2018,07,15,15,14,29.00
2018,07,15,15,15,29.00
2018,07,15,15,16,29.10
2018,07,15,15,17,29.20
2018,07,15,15,18,29.30
2018,07,15,15,19,29.30
2018,07,15,15,20,29.40
2018,07,15,15,21,29.40
2018,07,15,15,22,29.40
2018,07,15,15,23,29.50
2018,07,15,15,24,29.50
2018,07,15,15,25,29.50
2018,07,15,15,26,29.60
2018,07,15,15,27,29.60
2018,07,15,15,28,29.60
2018,07,15,15,29,29.70
2018,07,15,15,30,29.70
2018,07,15,15,31,29.60
2018,07,15,15,32,29.40
2018,07,15,15,33,29.40
2018,07,15,15,34,29.30
2018,07,15,15,35,29.20
2018,07,15,15,36,29.00
2018,07,15,15,37,28.90
2018,07,15,15,38,28.70
2018,07,15,15,39,28.60
2018,07,15,15,40,28.50
2018,07,15,15,41,28.40
2018,07,15,15,42,28.40
2018,07,15,15,43,28.40
2018,07,15,15,44,28.50
2018,07,15,15,45,28.60
2018,07,15,15,46,28.70
2018,07,15,15,47,28.70
2018,07,15,15,48,28.80
2018,07,15,15,49,28.80
2018,07,15,15,50,28.70
2018,07,15,15,51,28.50
2018,07,15,15,52,28.40
2018,07,15,15,53,28.40
2018,07,15,15,54,28.40
2018,07,15,15,55,28.40
2018,07,15,15,56,28.40
2018,07,15,15,57,28.40
2018,07,15,15,58,28.40
2018,07,15,15,59,28.50
2018,07,15,16,00,28.50
2018,07,15,16,01,28.60
2018,07,15,16,02,28.70
2018,07,15,16,03,28.70
2018,07,15,16,04,28.80
2018,07,15,16,05,28.70
2018,07,15,16,06,28.70
2018,07,15,16,07,28.80
2018,07,15,16,08,28.80
2018,07,15,16,09,28.80
2018,07,15,16,10,28.90
2018,07,15,16,11,29.00
2018,07,15,16,12,29.10
2018,07,15,16,13,29.10
2018,07,15,16,14,29.10
2018,07,15,16,15,29.10
2018,07,15,16,16,29.10
2018,07,15,16,17,29.10
2018,07,15,16,18,29.10
2018,07,15,16,19,29.10
2018,07,15,16,20,29.20
2018,07,15,16,21,29.20
2018,07,15,16,22,29.20
2018,07,15,16,23,29.20
2018,07,15,16,24,29.20
2018,07,15,16,25,29.20
2018,07,15,16,26,29.20
2018,07,15,16,27,29.10
2018,07,15,16,28,29.10
2018,07,15,16,29,29.00
2018,07,15,16,30,29.00
2018,07,15,16,31,28.90
2018,07,15,16,32,28.90
2018,07,15,16,33,28.80
2018,07,15,16,34,28.70
2018,07,15,16,35,28.60
2018,07,15,16,36,28.50
2018,07,15,16,37,28.50
2018,07,15,16,38,28.60
2018,07,15,16,39,28.60
2018,07,15,16,40,28.70
2018,07,15,16,41,28.70
2018,07,15,16,42,28.80
2018,07,15,16,43,28.90
2018,07,15,16,44,28.90
2018,07,15,16,45,28.90
2018,07,15,16,46,28.90
2018,07,15,16,47,28.90
2018,07,15,16,48,29.00
2018,07,15,16,49,29.00
2018,07,15,16,50,29.00
2018,07,15,16,51,28.90
2018,07,15,16,52,29.00
2018,07,15,16,53,29.00
2018,07,15,16,54,29.00
2018,07,15,16,55,29.10
2018,07,15,16,56,29.10
2018,07,15,16,57,29.20
2018,07,15,16,58,29.20
2018,07,15,16,59,29.20
2018,07,15,17,00,29.10
2018,07,15,17,01,29.10
2018,07,15,17,02,29.10
2018,07,15,17,03,29.10
2018,07,15,17,04,29.10
2018,07,15,17,05,29.10
2018,07,15,17,06,29.10
2018,07,15,17,07,29.10
2018,07,15,17,08,29.20
2018,07,15,17,09,29.20
2018,07,15,17,10,29.20
2018,07,15,17,11,29.20
2018,07,15,17,12,29.30
2018,07,15,17,13,29.40
2018,07,15,17,14,29.40
2018,07,15,17,15,29.50
2018,07,15,17,16,29.50
2018,07,15,17,17,29.60
2018,07,15,17,18,29.60
2018,07,15,17,19,29.70